timestamp,surface_pressure_avg,surface_temp_avg,battery_voltage,lat,long
2022-07-03 00:09:01+00:00,307.1114,16.01,12.17,47.84626,-54.09684
2022-07-03 00:19:00+00:00,317.2581,16.07,12.09,47.84626,-54.09684
2022-07-03 00:29:00+00:00,321.1431,16.1,12.09,47.84626,-54.09684
2022-07-03 00:39:00+00:00,323.6262,16.14,12.09,47.84626,-54.09684
2022-07-03 00:49:00+00:00,331.8780000000001,16.2,12.09,47.84626,-54.09684
2022-07-03 00:59:00+00:00,336.918,16.25,12.09,47.84626,-54.09684
2022-07-03 01:09:00+00:00,332.5029,16.26,12.09,47.84626,-54.09684
2022-07-03 01:19:00+00:00,334.7063,16.3,12.09,47.84626,-54.09684
2022-07-03 01:29:00+00:00,343.3346,16.31,12.09,47.84626,-54.09684
2022-07-03 01:39:00+00:00,345.5197,16.4,12.09,47.84626,-54.09684
2022-07-03 01:49:00+00:00,346.1979,16.38,12.09,47.84626,-54.09684
2022-07-03 01:59:00+00:00,352.5529,16.2,12.09,47.84626,-54.09684
2022-07-03 02:09:00+00:00,351.0129,16.19,12.09,47.84626,-54.09684
2022-07-03 02:19:01+00:00,343.908,16.4,12.09,47.84626,-54.09684
2022-07-03 02:29:01+00:00,346.7046,16.2,12.09,47.84626,-54.09684
2022-07-03 02:39:01+00:00,350.543,16.0,12.09,47.84626,-54.09684
2022-07-03 02:49:01+00:00,343.1880000000001,16.02,12.09,47.84626,-54.09684
2022-07-03 02:59:01+00:00,341.4213,16.17,12.09,47.84626,-54.09684
2022-07-03 03:09:01+00:00,342.7613,16.04,12.09,47.84626,-54.09684
2022-07-03 03:19:00+00:00,338.4530000000001,15.6,12.09,47.84626,-54.09684
2022-07-03 03:29:00+00:00,336.0779,15.9,12.09,47.84626,-54.09684
2022-07-03 03:39:00+00:00,337.2114,16.02,12.09,47.84626,-54.09684
2022-07-03 03:49:00+00:00,332.5863,16.0,12.09,47.84626,-54.09684
2022-07-03 03:59:00+00:00,323.2531,15.88,12.09,47.84626,-54.09684
2022-07-03 04:09:00+00:00,325.663,16.06,12.09,47.84626,-54.09684
2022-07-03 04:19:00+00:00,325.3613,16.2,12.09,47.84626,-54.09684
2022-07-03 04:29:00+00:00,318.3547,16.29,12.09,47.84626,-54.09684
2022-07-03 04:39:00+00:00,312.7581,16.2,12.09,47.84626,-54.09684
2022-07-03 04:49:00+00:00,314.5996,16.2,12.09,47.84626,-54.09684
2022-07-03 04:59:00+00:00,312.3347,16.28,12.09,47.84626,-54.09684
2022-07-03 05:09:00+00:00,299.763,16.3,12.09,47.84626,-54.09684
2022-07-03 05:19:00+00:00,293.308,16.3,12.09,47.84626,-54.09684
2022-07-03 05:29:00+00:00,290.7014,16.02,12.09,47.84626,-54.09684
2022-07-03 05:39:00+00:00,278.1814,16.29,12.09,47.84626,-54.09684
2022-07-03 05:49:00+00:00,261.5681,16.39,12.09,47.84626,-54.09684
2022-07-03 05:59:00+00:00,259.0697,16.4,12.09,47.84626,-54.09684
2022-07-03 06:09:00+00:00,257.5564,16.4,12.09,47.84626,-54.09684
2022-07-03 06:19:00+00:00,245.8897,16.4,12.09,47.84626,-54.09684
2022-07-03 06:29:00+00:00,235.7165,16.5,12.09,47.84626,-54.09684
2022-07-03 06:39:00+00:00,234.1598,16.48,12.09,47.84626,-54.09684
2022-07-03 06:49:00+00:00,229.6181,16.3,12.09,47.84626,-54.09684
2022-07-03 06:59:00+00:00,220.7164,16.29,12.09,47.84626,-54.09684
2022-07-03 07:09:00+00:00,215.6481,16.2,12.09,47.84626,-54.09684
2022-07-03 07:19:01+00:00,215.8181,16.2,12.09,47.84626,-54.09684
2022-07-03 07:29:01+00:00,211.0547,16.2,12.09,47.84626,-54.09684
2022-07-03 07:39:01+00:00,204.4548,16.2,12.09,47.84626,-54.09684
2022-07-03 07:49:01+00:00,201.5565,16.2,12.09,47.84626,-54.09684
2022-07-03 07:59:01+00:00,201.5931,16.19,12.09,47.84626,-54.09684
2022-07-03 08:09:01+00:00,201.3714,16.16,12.09,47.84626,-54.09684
2022-07-03 08:19:00+00:00,200.8831,16.1,12.09,47.84626,-54.09684
2022-07-03 08:29:00+00:00,203.7231,16.07,12.09,47.84626,-54.09684
2022-07-03 08:39:00+00:00,207.9315,16.14,12.09,47.84626,-54.09684
2022-07-03 08:49:00+00:00,210.8264,16.15,12.09,47.84626,-54.09684
2022-07-03 08:59:00+00:00,213.1648,16.1,12.09,47.84626,-54.09684
2022-07-03 09:09:00+00:00,214.2598,16.0,12.09,47.84626,-54.09684
2022-07-03 09:19:01+00:00,215.5148,16.02,12.09,47.84626,-54.09684
2022-07-03 09:29:01+00:00,216.8665,16.0,12.09,47.84626,-54.09684
2022-07-03 09:39:01+00:00,219.3898,15.9,12.09,47.84626,-54.09684
2022-07-03 09:49:01+00:00,223.3798,16.0,12.09,47.84626,-54.09684
2022-07-03 09:59:01+00:00,231.3031,15.99,12.09,47.84626,-54.09684
2022-07-03 10:09:01+00:00,236.3531,15.9,12.09,47.84626,-54.09684
2022-07-03 10:19:01+00:00,234.4014,15.87,12.09,47.84626,-54.09684
2022-07-03 10:29:01+00:00,238.0881,15.8,12.09,47.84626,-54.09684
2022-07-03 10:39:01+00:00,244.1031,15.7,12.09,47.84626,-54.09684
2022-07-03 10:49:01+00:00,246.2514,15.7,12.09,47.84626,-54.09684
2022-07-03 10:59:01+00:00,245.9164,15.74,12.09,47.84626,-54.09684
2022-07-03 11:09:01+00:00,251.4698,15.7,12.09,47.84626,-54.09684
2022-07-03 11:19:01+00:00,256.9115,15.7,12.09,47.84626,-54.09684
2022-07-03 11:29:01+00:00,259.7464,15.79,12.09,47.84626,-54.09684
2022-07-03 11:39:01+00:00,265.5664,15.9,12.09,47.84626,-54.09684
2022-07-03 11:49:01+00:00,274.573,16.0,12.09,47.84626,-54.09684
2022-07-03 11:59:01+00:00,279.8614,16.0,12.09,47.84626,-54.09684
2022-07-03 12:09:01+00:00,282.908,16.02,12.09,47.84626,-54.09684
2022-07-03 12:19:00+00:00,287.4297,16.3,12.09,47.84626,-54.09684
2022-07-03 12:29:00+00:00,292.8448,16.4,12.09,47.84626,-54.09684
2022-07-03 12:39:00+00:00,295.8697,16.44,12.09,47.84626,-54.09684
2022-07-03 12:49:00+00:00,300.5097,16.4,12.09,47.84626,-54.09684
2022-07-03 12:59:00+00:00,304.5897,16.6,12.09,47.84626,-54.09684
2022-07-03 13:09:00+00:00,311.0031,16.62,12.09,47.84626,-54.09684
2022-07-03 13:19:00+00:00,316.4113,16.77,12.09,47.84626,-54.09684
2022-07-03 13:29:00+00:00,318.8613,16.8,12.09,47.84626,-54.09684
2022-07-03 13:39:00+00:00,319.6281,16.4,12.09,47.84626,-54.09684
2022-07-03 13:49:00+00:00,320.743,16.0,12.09,47.84626,-54.09684
2022-07-03 13:59:00+00:00,322.718,16.07,12.09,47.84626,-54.09684
2022-07-03 14:09:00+00:00,320.9014,16.1,12.09,47.84626,-54.09684
2022-07-03 14:19:01+00:00,318.6796,15.9,12.09,47.84626,-54.09684
2022-07-03 14:29:01+00:00,320.913,15.8,12.09,47.84626,-54.09684
2022-07-03 14:39:01+00:00,322.3179,15.8,12.09,47.84626,-54.09684
2022-07-03 14:49:01+00:00,320.1946,16.04,12.09,47.84626,-54.09684
2022-07-03 14:59:01+00:00,318.9813,16.18,12.09,47.84626,-54.09684
2022-07-03 15:09:01+00:00,316.1613,16.0,12.09,47.84626,-54.09684
2022-07-03 15:19:00+00:00,312.8864,15.9,12.09,47.84626,-54.09684
2022-07-03 15:29:00+00:00,310.1647,16.0,12.09,47.84626,-54.09684
2022-07-03 15:39:00+00:00,313.6697,16.29,12.09,47.84626,-54.09684
2022-07-03 15:49:00+00:00,309.498,16.37,12.09,47.84626,-54.09684
2022-07-03 15:59:00+00:00,302.8247,16.5,12.09,47.84626,-54.09684
2022-07-03 16:09:00+00:00,298.8563,16.39,12.09,47.84626,-54.09684
2022-07-03 16:19:00+00:00,302.4514,16.3,12.09,47.84626,-54.09684
2022-07-03 16:29:00+00:00,299.2646,16.29,12.09,47.84626,-54.09684
2022-07-03 16:39:00+00:00,293.4147,16.4,12.09,47.84626,-54.09684
2022-07-03 16:49:00+00:00,291.0831,16.49,12.09,47.84626,-54.09684
2022-07-03 16:59:00+00:00,286.8797,16.5,12.09,47.84626,-54.09684
2022-07-03 17:09:00+00:00,277.8713,16.5,12.09,47.84626,-54.09684
2022-07-03 17:19:00+00:00,271.4114,16.5,12.09,47.84626,-54.09684
2022-07-03 17:29:00+00:00,267.7381,16.5,12.09,47.84626,-54.09684
2022-07-03 17:39:00+00:00,259.9314,16.3,12.09,47.84626,-54.09684
2022-07-03 17:49:00+00:00,250.5547,16.29,12.09,47.84626,-54.09684
2022-07-03 17:59:00+00:00,245.7147,16.28,12.09,47.84626,-54.09684
2022-07-03 18:09:00+00:00,240.6164,16.29,12.09,47.84626,-54.09684
2022-07-03 18:19:01+00:00,235.2647,16.2,12.09,47.84626,-54.09684
2022-07-03 18:29:01+00:00,231.0398,16.09,12.09,47.84626,-54.09684
2022-07-03 18:39:01+00:00,225.1148,15.9,12.09,47.84626,-54.09684
2022-07-03 18:49:01+00:00,216.9931,15.9,12.09,47.84626,-54.09684
2022-07-03 18:59:01+00:00,210.8148,15.9,12.09,47.84626,-54.09684
2022-07-03 19:09:01+00:00,208.1865,15.95,12.09,47.84626,-54.09684
2022-07-03 19:19:00+00:00,204.3931,15.98,12.09,47.84626,-54.09684
2022-07-03 19:29:00+00:00,199.5148,16.0,12.09,47.84626,-54.09684
2022-07-03 19:39:00+00:00,198.4898,15.98,12.09,47.84626,-54.09684
2022-07-03 19:49:00+00:00,198.2048,15.9,12.09,47.84626,-54.09684
2022-07-03 19:59:00+00:00,195.4482,15.9,12.09,47.84626,-54.09684
2022-07-03 20:09:00+00:00,194.8848,15.98,12.09,47.84626,-54.09684
2022-07-03 20:19:00+00:00,199.1298,16.0,12.09,47.84626,-54.09684
2022-07-03 20:29:00+00:00,199.6732,15.9,12.09,47.84626,-54.09684
2022-07-03 20:39:00+00:00,200.3764,15.9,12.09,47.84626,-54.09684
2022-07-03 20:49:00+00:00,207.6964,15.83,12.09,47.84626,-54.09684
2022-07-03 20:59:00+00:00,212.7148,15.9,12.09,47.84626,-54.09684
2022-07-03 21:09:00+00:00,212.3331,15.9,12.09,47.84626,-54.09684
2022-07-03 21:19:00+00:00,216.5048,15.8,12.09,47.84626,-54.09684
2022-07-03 21:29:00+00:00,225.6314,15.8,12.09,47.84626,-54.09684
2022-07-03 21:39:00+00:00,228.5664,15.8,12.09,47.84626,-54.09684
2022-07-03 21:49:00+00:00,229.8347,15.8,12.09,47.84626,-54.09684
2022-07-03 21:59:00+00:00,238.0714,15.8,12.09,47.84626,-54.09684
2022-07-03 22:09:00+00:00,242.968,15.79,12.09,47.84626,-54.09684
2022-07-03 22:19:00+00:00,241.8348,15.73,12.09,47.84626,-54.09684
2022-07-03 22:29:00+00:00,245.9481,15.8,12.09,47.84626,-54.09684
2022-07-03 22:39:00+00:00,249.7581,15.7,12.09,47.84626,-54.09684
2022-07-03 22:49:00+00:00,249.8398,15.7,12.09,47.84626,-54.09684
2022-07-03 22:59:00+00:00,252.8881,15.5,12.09,47.84626,-54.09684
2022-07-03 23:09:00+00:00,260.4464,15.1,12.09,47.84626,-54.09684
2022-07-03 23:19:00+00:00,261.9814,15.17,12.01,47.84626,-54.09684
2022-07-03 23:29:00+00:00,262.3764,15.47,12.01,47.84626,-54.09684
2022-07-03 23:39:00+00:00,267.183,15.4,12.01,47.84626,-54.09684
2022-07-03 23:49:00+00:00,276.9163,15.33,12.01,47.84626,-54.09684
2022-07-03 23:59:00+00:00,279.2513,15.4,12.01,47.84626,-54.09684
